Location: Laura�t
(43.9341°N, 0.2497°E)
Time: 23:53:15
(UTC+00:00)

Helios 1A Rocket - Pass Details

Date: 03 March 2021
Orbit: 563 x 585 km, 98.3° (Epoch: 17 April)

Event Time Altitude Azimuth Distance (km) Brightness Sun altitude
Rises 19:12:21 0° 172° (S) 2,767 6.3 -15.6°
Reaches altitude 10° 19:14:30 10° 175° (S) 1,871 5.4 -16.0°
Maximum altitude 19:18:31 66° 257° (WSW) 625 3.3 -16.7°
Drops below altitude 10° 19:22:34 10° 341° (NNW) 1,874 5.9 -17.4°
Sets 19:24:43 0° 344° (NNW) 2,774 6.7 -17.8°
